Volver al catálogo

STARLINK-31051

ActivoComunicacionesVLEO
NORAD 58719·PAYLOAD·🇺🇸 United States

Lanzado Jan 3, 2024 desde Vandenberg Space Force Base

Loading…

Próximos Pases (próximas 24 horas)

TLE

ActualizadoSource: CelesTrak SupGP

Época: Sep 15, 2026, 01:44 UTC

1 58719C 24002Q   26258.07270833 -.00017976  00000+0 -53097-3 0  2587
2 58719  53.1585  68.7569 0000861  90.6254 210.6258 15.34409060    18

Sigue STARLINK-31051 en tiempo real con AllMySat

Download on the App Store